Goodland, KS

11:01 PM MST on February 20, 2017 (GMT -0700)
Renner-Goodland Municipal

Weather History for KGLD - January, 2013

Change the Weather History Date:

Tuesday, January 15, 2013

  Actual Average Record
Temperature  
Mean Temperature 22 °F 30 °F  
Max Temperature 31 °F 43 °F 68 °F (1943)
Min Temperature 13 °F 17 °F -6 °F (1930)
Degree Days  
Heating Degree Days 43 35  
Month to date heating degree days 598 527  
Since 1 July heating degree days 2866 2934  
Cooling Degree Days 0 0  
Month to date cooling degree days 0 0  
Year to date cooling degree days 0 0  
Moisture  
Dew Point 11 °F    
Average Humidity 57    
Maximum Humidity 88    
Minimum Humidity 25    
Precipitation  
Precipitation T in 0.01 in 0.33 in (2017)
Month to date precipitation 0.02 0.17  
Year to date precipitation 0.02 0.17  
Snow  
Snow T in 0.20 in - ()
Month to date snowfall 0.4 2.7  
Since 1 July snowfall 10.4 15.4  
Snow Depth T in    
Sea Level Pressure  
Sea Level Pressure 30.21 in    
Wind  
Wind Speed 9 mph (WNW)    
Max Wind Speed 18 mph    
Max Gust Speed 22 mph    
Visibility 10 miles    
Events Snow    
T = Trace of Precipitation, MM = Missing Value Source: NWS Daily Summary

Daily Weather History Graph

Daily Weather History Graph

Search for Another Location

Airport or City:

Trip Planner

Search our weather history database for the weather conditions in past years. The results will help you decide how hot, cold, wet, or windy it might be!

Date:

Astronomy

Jan. 15, 2013 Rise Set
Actual Time 7:04 AM MST 4:48 PM MST
Civil Twilight 6:35 AM MST 5:17 PM MST
Nautical Twilight 6:02 AM MST 5:50 PM MST
Astronomical Twilight 5:30 AM MST 6:22 PM MST
Moon 9:13 AM MST (1/15) 9:38 PM MST (1/15)
Length of Visible Light 10h 41m
Length of Day
9h 43m
Waxing Crescent, 20% of the Moon is Illuminated
Jan 15
Waxing Crescent
Jan 18
First Quarter
Jan 26
Full
Feb 3
Last Quarter
Feb 10
New

Hourly Weather History & Observations

Time (MST) Temp. Windchill Dew Point Humidity Pressure Visibility Wind Dir Wind Speed Gust Speed Precip Events Conditions
12:53 AM 17.1 °F 7.6 °F 12.9 °F 84% 30.25 in 10.0 mi South 6.9 mph - 0.00 in   Overcast
1:53 AM 16.0 °F 10.4 °F 12.9 °F 88% 30.25 in 7.0 mi South 3.5 mph - 0.00 in Snow Light Snow
2:18 AM 17.6 °F - 14.0 °F 86% 30.14 in 10.0 mi Calm Calm - 0.00 in   Overcast
2:27 AM 17.6 °F - 14.0 °F 86% 30.14 in 9.0 mi Calm Calm - 0.00 in   Overcast
2:53 AM 18.0 °F - 15.1 °F 88% 30.26 in 10.0 mi Calm Calm - 0.00 in   Overcast
3:53 AM 18.0 °F - 14.0 °F 84% 30.26 in 9.0 mi Calm Calm - N/A   Overcast
4:53 AM 15.1 °F 7.7 °F 12.0 °F 88% 30.27 in 10.0 mi NNW 4.6 mph - N/A   Overcast
5:41 AM 15.8 °F 10.2 °F 12.2 °F 86% 30.14 in 10.0 mi NNW 3.5 mph - N/A   Overcast
5:53 AM 15.1 °F 7.7 °F 12.0 °F 88% 30.28 in 10.0 mi NNW 4.6 mph - N/A   Overcast
6:53 AM 15.1 °F 9.4 °F 10.9 °F 84% 30.28 in 10.0 mi NW 3.5 mph - N/A   Overcast
7:53 AM 14.0 °F 5.1 °F 9.0 °F 80% 30.29 in 10.0 mi West 5.8 mph - N/A   Mostly Cloudy
8:08 AM 15.8 °F 7.2 °F 10.4 °F 79% 30.15 in 10.0 mi West 5.8 mph - N/A   Scattered Clouds
8:53 AM 16.0 °F 3.6 °F 9.0 °F 74% 30.32 in 10.0 mi WNW 10.4 mph - N/A   Clear
9:53 AM 18.0 °F 4.8 °F 9.0 °F 68% 30.29 in 10.0 mi West 12.7 mph - N/A   Clear
10:53 AM 23.0 °F 11.7 °F 10.9 °F 60% 30.26 in 10.0 mi West 11.5 mph - N/A   Clear
11:53 AM 26.1 °F 17.6 °F 3.9 °F 39% 30.22 in 10.0 mi West 8.1 mph - N/A   Clear
12:53 PM 28.9 °F 18.6 °F -2.0 °F 26% 30.19 in 10.0 mi WNW 12.7 mph - N/A   Clear
1:53 PM 30.0 °F 19.1 °F -2.9 °F 24% 30.18 in 10.0 mi NW 15.0 mph - N/A   Clear
2:53 PM 30.9 °F 19.8 °F 6.1 °F 35% 30.19 in 10.0 mi NW 16.1 mph - N/A   Scattered Clouds
3:53 PM 30.0 °F 20.5 °F 9.0 °F 41% 30.19 in 10.0 mi NW 11.5 mph - N/A   Scattered Clouds
4:53 PM 25.0 °F 19.3 °F 10.0 °F 53% 30.20 in 10.0 mi West 4.6 mph - N/A   Overcast
5:53 PM 25.0 °F 15.5 °F 12.0 °F 58% 30.20 in 10.0 mi West 9.2 mph - N/A   Overcast
6:53 PM 26.1 °F 16.2 °F 12.0 °F 55% 30.22 in 10.0 mi West 10.4 mph - N/A   Mostly Cloudy
7:53 PM 21.9 °F 11.7 °F 10.9 °F 63% 30.21 in 10.0 mi WSW 9.2 mph - N/A   Clear
8:53 PM 24.1 °F 14.4 °F 12.9 °F 62% 30.18 in 10.0 mi WSW 9.2 mph - N/A   Overcast
9:53 PM 27.0 °F 17.3 °F 16.0 °F 63% 30.17 in 10.0 mi West 10.4 mph - N/A   Overcast
10:53 PM 30.0 °F 19.5 °F 19.0 °F 64% 30.14 in 10.0 mi WNW 13.8 mph - N/A   Overcast
11:53 PM 30.0 °F 21.1 °F 21.9 °F 72% 30.12 in 10.0 mi West 10.4 mph - 0.00 in   Overcast